Location: Lecco
(45.8566°N, 9.3977°E)
Time: 12:49:23
(UTC+02:00)

Explorer 11/Cluster Stage 4 - Pass Details

Date: 16 August 2020
Orbit: 467 x 1258 km, 28.8° (Epoch: 24 September)

Event Time Altitude Azimuth Distance (km) Brightness Sun altitude
Rises 21:41:49 0° 227° (SW) 3,780 10.2 -12.2°
Reaches altitude 10° 21:45:15 10° 210° (SSW) 2,956 9.5 -12.7°
Maximum altitude 21:50:14 19° 168° (SSE) 2,464 8.7 -13.4°
Enters shadow 21:52:58 16° 143° (SE) 2,703 8.7 -13.8°
Drops below altitude 10° 21:55:35 10° 126° (SE) 3,200 - -14.1°
Sets 21:59:29 0° 111° (ESE) 4,197 - -14.7°
